Location: Lourdes
(43.1000°N, 0.0500°W)
Time: 09:25:46
(UTC+00:00)

Meteor 1-10 Rocket - Pass Details

Date: 30 November 2020
Orbit: 836 x 910 km, 81.3° (Epoch: 26 January)

Event Time Altitude Azimuth Distance (km) Brightness Sun altitude
Rises 18:21:44 0° 179° (S) 3,433 7.5 -20.5°
Reaches altitude 10° 18:24:11 10° 177° (S) 2,489 6.7 -20.9°
Maximum altitude 18:29:46 66° 96° (E) 928 4.1 -21.9°
Enters shadow 18:32:46 28° 23° (NNE) 1,555 5.3 -22.5°
